Weather History for Montreal Mirabel, QC

Change the Weather History Date:

Thursday, February 28, 2013

  Actual Average Record
Temperature  
Mean Temperature 31 °F -  
Max Temperature 32 °F 26 °F 37 °F (1998)
Min Temperature 30 °F 10 °F -5 °F (2001)
Degree Days  
Heating Degree Days 34    
Moisture  
Dew Point 30 °F    
Average Humidity 94    
Maximum Humidity 100    
Minimum Humidity 87    
Precipitation  
Precipitation 0.00 in - - ()
Sea Level Pressure  
Sea Level Pressure 29.65 in    
Wind  
Wind Speed 8 mph ()    
Max Wind Speed 13 mph    
Max Gust Speed 23 mph    
Visibility 4.2 miles    
Events Snow    
Averages and records for this station are not official NWS values.
T = Trace of Precipitation, MM = Missing Value Source: Averaged Metar Reports

Daily Weather History Graph

Daily Weather History Graph

Search for Another Location

Airport:

Trip Planner

Search our weather history database for the weather conditions in past years. The results will help you decide how hot, cold, wet, or windy it might be!

Date:

Astronomy

Feb. 28, 2013 Rise Set
Actual Time 6:36 AM EST 5:41 PM EST
Civil Twilight 6:06 AM EST 6:11 PM EST
Nautical Twilight 5:31 AM EST 6:46 PM EST
Astronomical Twilight 4:57 AM EST 7:20 PM EST
Moon 9:19 PM EST (2/28) 7:32 AM EST (2/28)
Length of Visible Light 12h 05m
Length of Day
11h 05m
Waning Gibbous, 91% of the Moon is Illuminated
Feb 28
Waning Gibbous
Mar 4
Last Quarter
Mar 11
New
Mar 19
First Quarter
Mar 27
Full

Hourly Weather History & Observations

Time (EST) Temp. Windchill Dew Point Humidity Pressure Visibility Wind Dir Wind Speed Gust Speed Precip Events Conditions
12:00 AM 32.0 °F 22.5 °F 30.2 °F 93% 29.70 in 1.2 mi ENE 12.7 mph 23.0 mph N/A Snow Light Snow
1:00 AM 32.0 °F 23.0 °F 30.2 °F 93% 29.68 in 1.5 mi ENE 11.5 mph 19.6 mph N/A Snow Light Snow
2:00 AM 30.2 °F 20.8 °F 30.2 °F 100% 29.66 in 1.5 mi ENE 11.5 mph 20.7 mph N/A Snow Light Snow
3:00 AM 30.2 °F 21.3 °F 30.2 °F 100% 29.63 in 1.5 mi ENE 10.4 mph 18.4 mph N/A Snow Light Snow
4:00 AM 30.2 °F 21.3 °F 30.2 °F 100% 29.62 in 1.2 mi ENE 10.4 mph - N/A Snow Light Snow
5:00 AM 30.2 °F 21.3 °F 30.2 °F 100% 29.61 in 1.5 mi ENE 10.4 mph - N/A Snow Light Snow
6:00 AM 30.2 °F 21.9 °F 28.4 °F 93% 29.61 in 1.5 mi ENE 9.2 mph 18.4 mph N/A Snow Light Snow
7:00 AM 30.2 °F 21.3 °F 28.4 °F 93% 29.62 in 1.5 mi ENE 10.4 mph - N/A Snow Light Snow
8:00 AM 30.2 °F 21.9 °F 28.4 °F 93% 29.62 in 1.0 mi ENE 9.2 mph - N/A Snow Light Snow
9:00 AM 30.2 °F 21.9 °F 28.4 °F 93% 29.63 in 2.0 mi NE 9.2 mph - N/A Snow Light Snow
10:00 AM 30.2 °F 23.4 °F 30.2 °F 100% 29.63 in 2.0 mi NE 6.9 mph - N/A Snow Light Snow
11:00 AM 30.2 °F 22.6 °F 28.4 °F 93% 29.63 in 2.0 mi NE 8.1 mph - N/A Snow Light Snow
12:00 PM 30.2 °F 21.9 °F 30.2 °F 100% 29.63 in 6.0 mi ENE 9.2 mph 17.3 mph N/A Snow Light Snow
1:00 PM 32.0 °F 24.8 °F 30.2 °F 93% 29.64 in 6.0 mi ENE 8.1 mph - N/A Snow Light Snow
2:00 PM 32.0 °F 26.4 °F 30.2 °F 93% 29.64 in 5.0 mi NE 5.8 mph - N/A Snow Light Snow
3:00 PM 32.0 °F 26.4 °F 30.2 °F 93% 29.65 in 5.0 mi NE 5.8 mph - N/A   Overcast
4:00 PM 32.0 °F 26.4 °F 30.2 °F 93% 29.65 in 5.0 mi NE 5.8 mph - N/A   Overcast
5:00 PM 32.0 °F 26.4 °F 30.2 °F 93% 29.67 in 15.0 mi NE 5.8 mph - N/A   Overcast
6:00 PM 32.0 °F 27.5 °F 30.2 °F 93% 29.68 in 8.0 mi NE 4.6 mph - N/A   Overcast
7:00 PM 32.0 °F 26.4 °F 30.2 °F 93% 29.69 in 15.0 mi NE 5.8 mph - N/A   Overcast
8:00 PM 32.0 °F 27.5 °F 28.4 °F 87% 29.69 in 25.0 mi NE 4.6 mph - N/A   Overcast
9:00 PM 32.0 °F 28.7 °F 28.4 °F 87% 29.70 in 25.0 mi NE 3.5 mph - N/A   Overcast
10:00 PM 32.0 °F 26.4 °F 28.4 °F 87% 29.70 in 25.0 mi NNE 5.8 mph - N/A   Overcast
11:00 PM 30.2 °F 24.3 °F 28.4 °F 93% 29.70 in 25.0 mi NNE 5.8 mph - N/A   Overcast